TimeMDT,TemperatureF,Dew PointF,Humidity,Sea Level PressureIn,VisibilityMPH,Wind Direction,Wind SpeedMPH,Gust SpeedMPH,PrecipitationIn,Events,Conditions,WindDirDegrees,DateUTC
12:15 AM,21.2,12.2,68,30.00,10.0,WSW,13.8,19.6,N/A,,Clear,250,2013-03-11 06:15:00
12:35 AM,21.2,12.2,68,29.99,10.0,WSW,17.3,23.0,N/A,,Clear,250,2013-03-11 06:35:00
12:55 AM,19.4,10.4,68,29.98,10.0,West,13.8,19.6,N/A,,Clear,260,2013-03-11 06:55:00
1:15 AM,19.4,12.2,74,29.98,10.0,West,16.1,24.2,N/A,,Scattered Clouds,270,2013-03-11 07:15:00
1:35 AM,19.4,12.2,74,29.97,10.0,West,20.7,27.6,N/A,,Mostly Cloudy,280,2013-03-11 07:35:00
1:55 AM,19.4,12.2,74,29.97,10.0,West,20.7,28.8,N/A,,Overcast,280,2013-03-11 07:55:00
2:15 AM,19.4,12.2,74,29.96,10.0,West,17.3,27.6,N/A,,Mostly Cloudy,280,2013-03-11 08:15:00
2:35 AM,19.4,12.2,74,29.96,10.0,WNW,19.6,24.2,N/A,,Scattered Clouds,290,2013-03-11 08:35:00
2:55 AM,19.4,12.2,74,29.96,10.0,WNW,19.6,29.9,N/A,,Mostly Cloudy,290,2013-03-11 08:55:00
3:15 AM,19.4,12.2,74,29.96,10.0,WNW,16.1,25.3,N/A,,Mostly Cloudy,290,2013-03-11 09:15:00
3:35 AM,21.2,12.2,68,29.96,10.0,WNW,17.3,23.0,N/A,,Overcast,290,2013-03-11 09:35:00
3:55 AM,19.4,12.2,74,29.96,10.0,WNW,13.8,-,N/A,,Mostly Cloudy,300,2013-03-11 09:55:00
4:15 AM,19.4,12.2,74,29.95,10.0,WNW,12.7,23.0,N/A,,Scattered Clouds,290,2013-03-11 10:15:00
4:35 AM,21.2,12.2,68,29.94,10.0,West,17.3,25.3,N/A,,Mostly Cloudy,270,2013-03-11 10:35:00
4:55 AM,21.2,12.2,68,29.94,10.0,West,17.3,24.2,N/A,,Overcast,280,2013-03-11 10:55:00
5:15 AM,19.4,12.2,74,29.94,10.0,WNW,16.1,21.9,N/A,,Overcast,290,2013-03-11 11:15:00
5:35 AM,19.4,12.2,74,29.95,10.0,WNW,15.0,20.7,N/A,,Overcast,290,2013-03-11 11:35:00
5:55 AM,21.2,12.2,68,29.95,10.0,West,15.0,24.2,N/A,,Overcast,280,2013-03-11 11:55:00
6:15 AM,21.2,12.2,68,29.94,10.0,West,15.0,21.9,N/A,,Overcast,280,2013-03-11 12:15:00
6:35 AM,19.4,12.2,74,29.96,10.0,WNW,11.5,17.3,N/A,,Overcast,290,2013-03-11 12:35:00
6:55 AM,19.4,12.2,74,29.96,10.0,WNW,11.5,-,N/A,,Overcast,300,2013-03-11 12:55:00
7:15 AM,19.4,12.2,74,29.96,10.0,WNW,13.8,19.6,N/A,,Overcast,290,2013-03-11 13:15:00
7:35 AM,19.4,12.2,74,29.95,10.0,West,16.1,21.9,N/A,,Overcast,280,2013-03-11 13:35:00
7:55 AM,19.4,12.2,74,29.95,7.0,WNW,19.6,28.8,N/A,Snow,Light Snow,300,2013-03-11 13:55:00
8:15 AM,19.4,12.2,74,29.96,4.0,NW,16.1,25.3,N/A,Snow,Light Snow,310,2013-03-11 14:15:00
8:35 AM,19.4,12.2,74,29.96,10.0,WNW,9.2,-,N/A,Snow,Light Snow,290,2013-03-11 14:35:00
8:55 AM,21.2,10.4,63,29.96,10.0,West,11.5,18.4,N/A,,Overcast,260,2013-03-11 14:55:00
9:15 AM,21.2,10.4,63,29.96,10.0,WSW,11.5,17.3,N/A,,Overcast,250,2013-03-11 15:15:00
9:35 AM,21.2,10.4,63,29.97,10.0,WSW,15.0,18.4,N/A,Snow,Light Snow,250,2013-03-11 15:35:00
9:55 AM,21.2,12.2,68,29.96,1.5,WSW,17.3,24.2,N/A,Snow,Light Snow,250,2013-03-11 15:55:00
10:15 AM,21.2,14.0,74,29.96,2.0,WSW,15.0,20.7,N/A,Snow,Light Snow,250,2013-03-11 16:15:00
10:35 AM,21.2,14.0,74,29.94,1.0,WSW,20.7,25.3,N/A,Snow,Light Snow,250,2013-03-11 16:35:00
10:55 AM,21.2,15.8,80,29.95,0.8,WSW,15.0,-,N/A,Snow,Light Snow,250,2013-03-11 16:55:00
11:15 AM,21.2,15.8,80,29.94,0.2,WSW,17.3,23.0,N/A,Snow,Snow,250,2013-03-11 17:15:00
11:35 AM,21.2,15.8,80,29.94,0.2,WSW,16.1,24.2,N/A,Snow,Heavy Snow,250,2013-03-11 17:35:00
11:55 AM,21.2,15.8,80,29.94,0.2,WSW,16.1,24.2,N/A,Snow,Light Snow,250,2013-03-11 17:55:00
12:15 PM,21.2,17.6,86,29.93,0.2,West,19.6,26.5,N/A,Snow,Heavy Snow,270,2013-03-11 18:15:00
12:35 PM,21.2,17.6,86,29.92,0.2,West,18.4,26.5,N/A,Snow,Light Snow,270,2013-03-11 18:35:00
12:55 PM,23.0,17.6,80,29.92,0.5,WSW,15.0,28.8,N/A,,Haze,250,2013-03-11 18:55:00
1:15 PM,23.0,17.6,80,29.92,2.0,West,19.6,31.1,N/A,,Haze,260,2013-03-11 19:15:00
1:35 PM,23.0,17.6,80,29.92,2.5,West,20.7,27.6,N/A,,Haze,260,2013-03-11 19:35:00
1:55 PM,23.0,19.4,86,29.92,4.0,West,15.0,32.2,N/A,,Overcast,260,2013-03-11 19:55:00
2:15 PM,-9999,-9999,N/A,29.90,0.2,West,17.3,28.8,N/A,,Unknown,260,2013-03-11 20:15:00
2:35 PM,-9999,-9999,N/A,29.90,0.2,WSW,15.0,24.2,N/A,,Unknown,250,2013-03-11 20:35:00
2:55 PM,-9999,-9999,N/A,29.89,0.2,WSW,17.3,24.2,N/A,,Unknown,250,2013-03-11 20:55:00
3:15 PM,-9999,-9999,N/A,29.88,0.2,WSW,16.1,21.9,N/A,,Unknown,250,2013-03-11 21:15:00
3:35 PM,-9999,-9999,N/A,29.87,0.2,WSW,21.9,28.8,N/A,,Unknown,250,2013-03-11 21:35:00
3:55 PM,-9999,-9999,N/A,29.87,0.2,WSW,18.4,26.5,N/A,,Unknown,250,2013-03-11 21:55:00
4:15 PM,-9999,-9999,N/A,29.87,0.2,WSW,21.9,28.8,N/A,,Unknown,250,2013-03-11 22:15:00
4:35 PM,-9999,-9999,N/A,29.87,2.0,West,26.5,39.1,N/A,,Unknown,260,2013-03-11 22:35:00
5:15 PM,-9999,-9999,N/A,29.86,0.2,West,25.3,36.8,N/A,,Unknown,260,2013-03-11 23:15:00
5:35 PM,-9999,-9999,N/A,29.85,0.2,West,24.2,41.4,N/A,,Unknown,270,2013-03-11 23:35:00
5:55 PM,-9999,-9999,N/A,29.85,0.5,West,27.6,43.7,N/A,,Unknown,280,2013-03-11 23:55:00
6:15 PM,-9999,-9999,N/A,29.85,0.5,West,32.2,47.2,N/A,,Unknown,280,2013-03-12 00:15:00
6:35 PM,-9999,-9999,N/A,29.85,1.0,West,29.9,43.7,N/A,,Unknown,270,2013-03-12 00:35:00
6:55 PM,-9999,-9999,N/A,29.87,2.5,West,25.3,38.0,N/A,,Overcast,280,2013-03-12 00:55:00
7:15 PM,-9999,-9999,N/A,29.87,2.0,West,29.9,46.0,N/A,,Unknown,280,2013-03-12 01:15:00
7:35 PM,-9999,-9999,N/A,29.88,1.5,West,27.6,47.2,N/A,,Unknown,280,2013-03-12 01:35:00
7:55 PM,-9999,-9999,N/A,29.88,0.2,WNW,26.5,43.7,N/A,,Unknown,290,2013-03-12 01:55:00
8:15 PM,-9999,-9999,N/A,29.87,0.2,WNW,28.8,39.1,N/A,,Unknown,290,2013-03-12 02:15:00
8:35 PM,-9999,-9999,N/A,29.89,0.2,WNW,23.0,36.8,N/A,,Unknown,290,2013-03-12 02:35:00
8:55 PM,-9999,-9999,N/A,29.89,0.2,WNW,29.9,41.4,N/A,,Unknown,300,2013-03-12 02:55:00
9:15 PM,-9999,-9999,N/A,29.91,0.2,WNW,23.0,34.5,N/A,,Unknown,290,2013-03-12 03:15:00
9:35 PM,-9999,-9999,N/A,29.92,0.2,WNW,21.9,39.1,N/A,,Unknown,290,2013-03-12 03:35:00
9:55 PM,-9999,-9999,N/A,29.92,0.2,WNW,23.0,36.8,N/A,,Unknown,300,2013-03-12 03:55:00
10:15 PM,-9999,-9999,N/A,29.92,0.2,WNW,25.3,36.8,N/A,,Unknown,290,2013-03-12 04:15:00
10:35 PM,-9999,-9999,N/A,29.93,0.2,WNW,23.0,39.1,N/A,,Unknown,290,2013-03-12 04:35:00
10:55 PM,-9999,-9999,N/A,29.93,0.2,West,25.3,35.7,N/A,,Unknown,280,2013-03-12 04:55:00
11:35 PM,-9999,-9999,N/A,29.93,0.2,North,-9999.0,-,N/A,,Unknown,0,2013-03-12 05:35:00
11:55 PM,-9999,-9999,N/A,29.94,0.2,North,-9999.0,-,N/A,,Unknown,0,2013-03-12 05:55:00